Terug naar catalogus

STARLINK-31615

ActiefCommunicatieVLEO
NORAD 59413·PAYLOAD·🇺🇸 United States

Gelanceerd Apr 5, 2024 vanaf Cape Canaveral Space Force Station

Loading…

Volgende Passages (komende 24 uur)

TLE

VersSource: CelesTrak SupGP

Epoch: Sep 14, 2026, 22:42 UTC

1 59413C 24064R   26257.94631944  .00110170  00000+0  32432-2 0  2572
2 59413  42.9979  58.1553 0009049 294.8747 152.1349 15.34136495    11

Volg STARLINK-31615 in realtime met AllMySat

Download on the App Store